Location: Cedarbrook
(36.3103°N, 86.6422°W)
Time: 08:45:00
(UTC+00:00)

Cosmos 968 Rocket - Pass Details

Date: 29 October 2020
Orbit: 741 x 770 km, 74.0° (Epoch: 04 December)

Event Time Altitude Azimuth Distance (km) Brightness Sun altitude
Rises 23:18:49 0° 353° (N) 3,228 6.7 -5.9°
Reaches altitude 10° 23:21:31 10° 5° (N) 2,294 5.8 -6.4°
Maximum altitude 23:25:59 28° 64° (ENE) 1,378 4.3 -7.3°
Drops below altitude 10° 23:30:24 10° 124° (SE) 2,266 5.5 -8.2°
Sets 23:33:02 0° 136° (SE) 3,181 6.4 -8.7°
